AirNav   Everest Fuels
 
 1089 users online  

MO41 Landing Pad
Troy, Missouri, USA

GOING TO TROY?


FAA INFORMATION EFFECTIVE 31 DECEMBER 2020

Location

FAA Identifier: MO41
Lat/Long: 38-58-55.6700N 090-57-47.1100W
38-58.927833N 090-57.785167W
38.9821306,-90.9630861
(estimated)
Elevation: 520 ft. / 158 m (estimated)
Variation: 01E (1995)
Time zone: UTC -6 (UTC -5 during Daylight Saving Time)
Zip code: 63379

Heliport Operations

Heliport use: Private use, MEDICAL USE.
Activation date: 10/1997
Control tower: no
ARTCC: KANSAS CITY CENTER
FSS: SAINT LOUIS FLIGHT SERVICE STATION
Attendance: CONTINUOUS
Wind indicator: yes
Segmented circle: no
Lights: FOR PERIMETER AND FLOOD LGTS CALL 314-528-8551.

Nearby radio navigation aids

VOR radial/distance  VOR name  Freq  Var
FTZr356/17.3FORISTELL VORTAC110.8005E
STLr287/23.6ST LOUIS VORTAC117.4001E

Heliport Services

Runway Information

Helipad H1

Dimensions: 50 x 50 ft. / 15 x 15 m
Surface: concrete
Runway edge lights: PERI
INGROUND GREEN LED LGTS AND FLOOD LGTS.
Latitude: 38-58.927833N
Longitude: 090-57.785167W
Elevation: 520.0 ft.
Traffic pattern: leftleft

Heliport Ownership and Management from official FAA records

Ownership: Privately-owned
Owner: LINCOLN COUNTY MEMORIAL HOSP.
1000 EAST CHERRY STREET
TROY, MO 63379
Phone 314-528-8551
MERCY HOSPITAL LINCOLN LEASES THIS PROPERTY FROM LINCOLN COUNTY MEDICAL CENTER AND IS IN CHARGE OF ALL OPERATIONS.
Manager: MARK THORN
1000 EAST CHERRY STREET
TROY, MO 63379
Phone 314-528-8551

Additional Remarks

OWNER DESIRES HELIPORT NOT BE CHARTED.
FOR CD CTC ST LOUIS APCH AT 314-890-1018.

Instrument Procedures

There are no published instrument procedures at MO41.

Some nearby airports with instrument procedures:

KFYG - Washington Regional Airport (24 nm S)
KSUS - Spirit of St Louis Airport (24 nm SE)
KSET - St Charles County Smartt Airport (25 nm E)
H19 - Bowling Green Municipal Airport (26 nm NW)
1H0 - Creve Coeur Airport (26 nm SE)
 
Loc | Ops | Rwys | IFR | FBO | Links
Com | Nav | Svcs | Stats | Notes
Area around MO41 (Landing Pad)
 
Road maps at: MapQuest Bing Google
 
Aerial photo
No photo
 
Sectional chart

 
Airport distance calculator
Flying to Landing Pad? Find the distance to fly.

From to MO41

Sunrise and sunset
Times for 16-Jan-2021
 Local
(UTC-6)
 Zulu
(UTC)
Morning civil twilight06:5312:53
Sunrise07:2213:22
Sunset17:0623:06
Evening civil twilight17:3523:35

Current date and time
Zulu (UTC)  16-Jan-2021 21:37:02
Local (UTC-6)  16-Jan-2021 15:37:02
 
METAR
KFYG 
24nm S 
162055Z AUTO 29008KT 10SM OVC016 02/00 A2987 RMK AO2
KSUS 
25nm SE 
162054Z 26010KT 10SM OVC015 02/M01 A2985 RMK AO2 SLP115 60000 T00171011 53005
KSET 
25nm E 
162054Z AUTO 27014KT 10SM OVC017 02/M02 A2984 RMK AO2 SLP107 T00221017 53007 $
KSTL 
31nm SE 
162051Z 28013G24KT 10SM OVC017 02/M02 A2984 RMK AO2 SLP114 T00221017 53005
KPPQ 
40nm N 
162115Z AUTO 27012G17KT 10SM OVC014 01/00 A2983 RMK AO2 T00121001
KMYJ 
41nm W 
162115Z AUTO 27011KT 10SM OVC013 00/M01 A2986 RMK AO2
KALN 
44nm E 
162050Z 26011KT 7SM OVC014 01/00 A2983
KCPS 
45nm SE 
162053Z 28011KT 10SM OVC016 02/M01 A2985 RMK AO2 SLP110 T00221006 53005
TAF
KSUS 
25nm SE 
161504Z 1615/1712 28012G18KT P6SM OVC015 TEMPO 1616/1619 -SN OVC009 FM161900 28010KT P6SM OVC015 FM170500 28007KT P6SM -SN OVC010
NOTAMs
Click for the latest NOTAMs
NOTAMs are issued by the DoD/FAA and will open in a separate window not controlled by AirNav.

 

 
 

Would you like to see your business listed on this page?

 If your business provides an interesting product or service to pilots, flight crews, aircraft, or users of the Landing Pad, you should consider listing it here.  To start the listing process, click on the button below
 
Add a business
 

Other Pages about Landing Pad

Update a link
 
Copyright © AirNav, LLC. All rights reserved. Privacy Policy  Contact